Location: Aufkirchen
(47.9603°N, 11.3653°E)
Time: 10:12:47
(UTC+01:00)

Tiros 1 - Pass Details

Date: 29 November 2020
Orbit: 630 x 663 km, 48.4° (Epoch: 21 January)

Event Time Altitude Azimuth Distance (km) Brightness Sun altitude
Rises 17:52:49 0° 267° (W) 2,990 12.2 -14.2°
Reaches altitude 10° 17:55:10 10° 268° (W) 2,075 11.0 -14.6°
Maximum altitude 17:59:59 84° 358° (N) 665 7.1 -15.4°
Enters shadow 18:02:36 27° 85° (E) 1,258 8.0 -15.8°
Drops below altitude 10° 18:04:45 10° 86° (E) 2,060 - -16.2°
Sets 18:07:05 0° 88° (E) 2,965 - -16.5°
